Вернуться в каталог

COSMOS 2158

АктивенВоенныеPO
NORAD 21729·PAYLOAD·🇷🇺 Russia

Запущен Sep 28, 1991 с Plesetsk Cosmodrome

Loading…

Ближайшие Пролёты (ближайшие 24 часа)

TLE

СвежийSource: Space-Track

Эпоха: Sep 14, 2026, 23:32 UTC

1 21729U 91068B   26257.98070545  .00000001  00000-0 -50245-4 0  9997
2 21729  82.5789 253.6889 0004700 196.5170 190.8520 12.64071954613063

Отслеживайте COSMOS 2158 в реальном времени с AllMySat

Download on the App Store